| time (UTC) | temp F | wind direction | speed MPH | gust MPH | rain 1hr in | rain 24hr in | rain mn in | humidity % | barometer mb |
| 20260831145043 | 70 | 303 | 6.0 | 14.0 | 0.00 | 0.07 | 0.02 | 65 | 1015.8 |
| 20260831144607 | 70 | 256 | 8.0 | 14.0 | 0.00 | 0.07 | 0.02 | 66 | 1015.8 |
| 20260831144044 | 70 | 290 | 5.0 | 14.0 | 0.00 | 0.07 | 0.02 | 65 | 1015.8 |
| 20260831143544 | 71 | 306 | 8.0 | 15.0 | 0.00 | 0.07 | 0.02 | 63 | 1015.8 |
| 20260831143102 | 71 | 285 | 7.0 | 16.0 | 0.00 | 0.07 | 0.02 | 64 | 1015.7 |
| 20260831142544 | 71 | 248 | 10.0 | 16.0 | 0.00 | 0.07 | 0.02 | 63 | 1015.7 |
| 20260831142043 | 71 | 310 | 6.0 | 16.0 | 0.00 | 0.07 | 0.02 | 63 | 1015.7 |
| 20260831141611 | 71 | 319 | 8.0 | 16.0 | 0.00 | 0.07 | 0.02 | 62 | 1015.5 |
| 20260831141045 | 71 | 298 | 4.0 | 16.0 | 0.00 | 0.07 | 0.02 | 66 | 1015.3 |
| 20260831140544 | 71 | 299 | 7.0 | 16.0 | 0.00 | 0.07 | 0.02 | 64 | 1015.2 |
| 20260831135544 | 71 | 247 | 6.0 | 14.0 | 0.00 | 0.07 | 0.02 | 66 | 1015.3 |
| 20260831135044 | 71 | 282 | 7.0 | 16.0 | 0.00 | 0.07 | 0.02 | 66 | 1015.2 |
| 20260831134604 | 70 | 275 | 7.0 | 16.0 | 0.00 | 0.07 | 0.02 | 67 | 1015.2 |
| 20260831134044 | 71 | 291 | 10.0 | 16.0 | 0.00 | 0.07 | 0.02 | 65 | 1015.3 |
| 20260831133544 | 71 | 291 | 6.0 | 16.0 | 0.00 | 0.07 | 0.02 | 66 | 1015.2 |
| 20260831133106 | 70 | 278 | 7.0 | 15.0 | 0.00 | 0.07 | 0.02 | 68 | 1015.1 |
| 20260831132543 | 70 | 236 | 8.0 | 15.0 | 0.00 | 0.07 | 0.02 | 69 | 1015.0 |
| 20260831132044 | 70 | 200 | 9.0 | 15.0 | 0.00 | 0.07 | 0.02 | 68 | 1015.0 |
| 20260831131610 | 69 | 287 | 9.0 | 15.0 | 0.00 | 0.07 | 0.02 | 67 | 1015.0 |
| 20260831131044 | 69 | 297 | 7.0 | 15.0 | 0.00 | 0.07 | 0.02 | 67 | 1015.0 |
| 20260831130546 | 69 | 288 | 8.0 | 14.0 | 0.00 | 0.07 | 0.02 | 69 | 1014.9 |
| 20260831125544 | 67 | 217 | 6.0 | 14.0 | 0.00 | 0.07 | 0.02 | 72 | 1014.9 |
| 20260831125044 | 68 | 295 | 6.0 | 14.0 | 0.00 | 0.07 | 0.02 | 70 | 1014.8 |
| 20260831124607 | 68 | 254 | 7.0 | 14.0 | 0.00 | 0.07 | 0.02 | 72 | 1014.7 |
| 20260831124044 | 68 | 268 | 7.0 | 13.0 | 0.00 | 0.07 | 0.02 | 72 | 1014.6 |
| 20260831123544 | 68 | 279 | 7.0 | 13.0 | 0.00 | 0.07 | 0.02 | 72 | 1014.5 |
| 20260831123103 | 69 | 277 | 5.0 | 13.0 | 0.00 | 0.07 | 0.02 | 72 | 1014.4 |
| 20260831122544 | 68 | 262 | 7.0 | 13.0 | 0.00 | 0.07 | 0.02 | 73 | 1014.2 |
| 20260831122043 | 68 | 270 | 8.0 | 14.0 | 0.00 | 0.07 | 0.02 | 72 | 1014.3 |
| 20260831121607 | 67 | 267 | 5.0 | 15.0 | 0.00 | 0.07 | 0.02 | 74 | 1014.3 |
| 20260831121047 | 67 | 289 | 7.0 | 15.0 | 0.00 | 0.07 | 0.02 | 74 | 1014.2 |
| 20260831120543 | 67 | 302 | 6.0 | 15.0 | 0.00 | 0.07 | 0.02 | 75 | 1014.2 |
| 20260831120108 | 66 | 306 | 6.0 | 15.0 | 0.00 | 0.07 | 0.02 | 77 | 1014.2 |
| 20260831115542 | 66 | 302 | 8.0 | 15.0 | 0.00 | 0.07 | 0.02 | 76 | 1014.2 |
| 20260831115043 | 67 | 296 | 8.0 | 15.0 | 0.00 | 0.07 | 0.02 | 74 | 1014.1 |
| 20260831114604 | 68 | 237 | 8.0 | 15.0 | 0.00 | 0.07 | 0.02 | 71 | 1014.0 |
| 20260831114042 | 68 | 288 | 7.0 | 17.0 | 0.00 | 0.07 | 0.02 | 71 | 1013.9 |
| 20260831113543 | 68 | 298 | 9.0 | 17.0 | 0.00 | 0.07 | 0.02 | 71 | 1013.7 |
| 20260831113103 | 67 | 352 | 9.0 | 16.0 | 0.00 | 0.07 | 0.02 | 72 | 1013.7 |
| 20260831112543 | 67 | 290 | 10.0 | 17.0 | 0.00 | 0.07 | 0.02 | 72 | 1013.5 |
| 20260831112042 | 68 | 294 | 7.0 | 17.0 | 0.00 | 0.07 | 0.02 | 72 | 1013.4 |
| 20260831111612 | 67 | 268 | 9.0 | 17.0 | 0.00 | 0.07 | 0.02 | 74 | 1013.4 |
| 20260831111042 | 67 | 293 | 7.0 | 14.0 | 0.00 | 0.07 | 0.02 | 73 | 1013.4 |
| 20260831110547 | 67 | 215 | 4.0 | 15.0 | 0.00 | 0.07 | 0.02 | 74 | 1013.3 |
| 20260831110104 | 66 | 322 | 8.0 | 15.0 | 0.00 | 0.07 | 0.02 | 74 | 1013.3 |
| 20260831105543 | 67 | 323 | 8.0 | 12.0 | 0.00 | 0.07 | 0.02 | 73 | 1013.2 |
| 20260831105043 | 67 | 259 | 6.0 | 14.0 | 0.00 | 0.07 | 0.02 | 76 | 1013.2 |
| 20260831104605 | 66 | 328 | 9.0 | 14.0 | 0.00 | 0.07 | 0.02 | 75 | 1013.1 |
| 20260831104042 | 66 | 300 | 5.0 | 14.0 | 0.00 | 0.07 | 0.02 | 77 | 1013.1 |
| 20260831103543 | 66 | 309 | 8.0 | 14.0 | 0.00 | 0.07 | 0.02 | 75 | 1013.0 |
| 20260831103111 | 66 | 274 | 8.0 | 13.0 | 0.00 | 0.07 | 0.02 | 77 | 1012.9 |
| 20260831102543 | 66 | 291 | 7.0 | 13.0 | 0.00 | 0.07 | 0.02 | 77 | 1012.9 |
| 20260831102043 | 66 | 268 | 4.0 | 13.0 | 0.00 | 0.07 | 0.02 | 78 | 1012.9 |
| 20260831101604 | 65 | 313 | 9.0 | 16.0 | 0.00 | 0.07 | 0.02 | 77 | 1012.8 |
| 20260831101043 | 65 | 281 | 5.0 | 16.0 | 0.00 | 0.07 | 0.02 | 78 | 1012.7 |
| 20260831100545 | 65 | 277 | 7.0 | 15.0 | 0.00 | 0.07 | 0.02 | 78 | 1012.7 |
| 20260831100100 | 65 | 303 | 8.0 | 15.0 | 0.00 | 0.07 | 0.02 | 78 | 1012.7 |
| 20260831095544 | 64 | 329 | 5.0 | 12.0 | 0.00 | 0.07 | 0.02 | 79 | 1012.5 |
| 20260831095043 | 64 | 321 | 6.0 | 15.0 | 0.00 | 0.07 | 0.02 | 79 | 1012.5 |
| 20260831094601 | 64 | 298 | 6.0 | 15.0 | 0.00 | 0.07 | 0.02 | 80 | 1012.3 |
| 20260831094043 | 64 | 269 | 9.0 | 14.0 | 0.00 | 0.07 | 0.02 | 79 | 1012.4 |
| 20260831093543 | 64 | 302 | 7.0 | 14.0 | 0.00 | 0.07 | 0.02 | 80 | 1012.3 |
| 20260831093105 | 64 | 336 | 6.0 | 13.0 | 0.00 | 0.07 | 0.02 | 81 | 1012.2 |
| 20260831092542 | 64 | 311 | 5.0 | 12.0 | 0.00 | 0.07 | 0.02 | 81 | 1012.2 |
| 20260831092042 | 64 | 212 | 5.0 | 12.0 | 0.00 | 0.07 | 0.02 | 82 | 1012.0 |
| 20260831091614 | 63 | 286 | 6.0 | 12.0 | 0.00 | 0.07 | 0.02 | 82 | 1011.9 |
| 20260831091045 | 63 | 287 | 6.0 | 12.0 | 0.00 | 0.07 | 0.02 | 83 | 1012.0 |
| 20260831090544 | 63 | 241 | 5.0 | 16.0 | 0.00 | 0.07 | 0.02 | 83 | 1011.9 |
| 20260831090109 | 63 | 290 | 6.0 | 16.0 | 0.00 | 0.07 | 0.02 | 83 | 1011.9 |
| 20260831085546 | 63 | 288 | 6.0 | 16.0 | 0.00 | 0.07 | 0.02 | 83 | 1011.8 |
| 20260831085044 | 63 | 266 | 6.0 | 14.0 | 0.00 | 0.07 | 0.02 | 84 | 1011.7 |
| 20260831084608 | 62 | 283 | 7.0 | 14.0 | 0.00 | 0.07 | 0.02 | 84 | 1011.7 |
| 20260831084044 | 62 | 252 | 4.0 | 12.0 | 0.00 | 0.07 | 0.02 | 85 | 1011.5 |
| 20260831083544 | 62 | 242 | 6.0 | 12.0 | 0.00 | 0.07 | 0.02 | 85 | 1011.4 |
| 20260831083113 | 62 | 303 | 5.0 | 12.0 | 0.00 | 0.07 | 0.02 | 86 | 1011.3 |
| 20260831082544 | 61 | 259 | 5.0 | 13.0 | 0.00 | 0.07 | 0.02 | 86 | 1011.3 |
| 20260831082048 | 61 | 233 | 7.0 | 13.0 | 0.00 | 0.07 | 0.02 | 86 | 1011.1 |
| 20260831081608 | 61 | 217 | 6.0 | 12.0 | 0.00 | 0.07 | 0.02 | 87 | 1011.1 |
| 20260831081044 | 61 | 279 | 4.0 | 11.0 | 0.00 | 0.07 | 0.02 | 87 | 1011.1 |
| 20260831080543 | 61 | 235 | 4.0 | 11.0 | 0.00 | 0.07 | 0.02 | 88 | 1010.9 |
| 20260831080113 | 60 | 315 | 3.0 | 10.0 | 0.00 | 0.07 | 0.02 | 88 | 1010.9 |
| 20260831075543 | 60 | 228 | 4.0 | 9.0 | 0.00 | 0.07 | 0.02 | 88 | 1010.7 |
| 20260831075043 | 60 | 261 | 3.0 | 9.0 | 0.00 | 0.07 | 0.02 | 88 | 1010.8 |
| 20260831074604 | 60 | 297 | 2.0 | 9.0 | 0.00 | 0.07 | 0.02 | 88 | 1010.8 |
| 20260831074044 | 59 | 250 | 5.0 | 12.0 | 0.00 | 0.07 | 0.02 | 89 | 1010.7 |
| 20260831073544 | 59 | 223 | 5.0 | 12.0 | 0.00 | 0.07 | 0.02 | 88 | 1010.7 |
| 20260831073107 | 59 | 252 | 5.0 | 10.0 | 0.00 | 0.07 | 0.02 | 89 | 1010.7 |
| 20260831072543 | 59 | 266 | 3.0 | 14.0 | 0.00 | 0.07 | 0.01 | 89 | 1010.4 |
| 20260831072043 | 59 | 246 | 6.0 | 14.0 | 0.00 | 0.07 | 0.01 | 89 | 1010.4 |
| 20260831071606 | 58 | 269 | 6.0 | 13.0 | 0.00 | 0.07 | 0.01 | 90 | 1010.3 |
| 20260831071042 | 58 | 213 | 4.0 | 11.0 | 0.00 | 0.07 | 0.01 | 90 | 1010.2 |
| 20260831070547 | 58 | 238 | 6.0 | 11.0 | 0.00 | 0.07 | 0.01 | 91 | 1010.1 |
| 20260831070105 | 58 | 227 | 4.0 | 10.0 | 0.00 | 0.07 | 0.01 | 91 | 1010.0 |
| 20260831065542 | 57 | 252 | 4.0 | 9.0 | 0.00 | 0.07 | 0.01 | 91 | 1010.0 |
| 20260831065044 | 57 | 257 | 3.0 | 9.0 | 0.00 | 0.07 | 0.01 | 91 | 1009.9 |
| 20260831064608 | 57 | 224 | 3.0 | 8.0 | 0.00 | 0.07 | 0.01 | 91 | 1009.9 |
| 20260831064043 | 57 | 213 | 4.0 | 9.0 | 0.00 | 0.07 | 0.01 | 91 | 1009.9 |
| 20260831063544 | 57 | 240 | 3.0 | 9.0 | 0.00 | 0.07 | 0.01 | 92 | 1009.8 |
| 20260831063107 | 56 | 248 | 4.0 | 10.0 | 0.00 | 0.07 | 0.01 | 92 | 1009.8 |
| 20260831062544 | 56 | 235 | 5.0 | 10.0 | 0.00 | 0.07 | 0.01 | 92 | 1009.6 |
| 20260831062043 | 56 | 254 | 4.0 | 8.0 | 0.00 | 0.07 | 0.01 | 92 | 1009.5 |
| 20260831061601 | 56 | 251 | 4.0 | 7.0 | 0.00 | 0.07 | 0.01 | 92 | 1009.4 |
| 20260831061045 | 56 | 271 | 3.0 | 7.0 | 0.00 | 0.07 | 0.01 | 92 | 1009.4 |
| 20260831060543 | 56 | 231 | 1.0 | 8.0 | 0.00 | 0.07 | 0.01 | 92 | 1009.4 |
| 20260831060111 | 56 | 223 | 0.0 | 8.0 | 0.00 | 0.07 | 0.01 | 92 | 1009.2 |
| 20260831055544 | 56 | 233 | 4.0 | 10.0 | 0.00 | 0.07 | 0.01 | 92 | 1009.1 |
| 20260831055046 | 56 | 252 | 3.0 | 10.0 | 0.00 | 0.07 | 0.01 | 92 | 1008.9 |
| 20260831054621 | 56 | 221 | 3.0 | 9.0 | 0.00 | 0.07 | 0.01 | 92 | 1008.9 |
| 20260831054044 | 56 | 242 | 4.0 | 8.0 | 0.00 | 0.07 | 0.01 | 92 | 1008.7 |
| 20260831053546 | 56 | 224 | 3.0 | 8.0 | 0.00 | 0.07 | 0.01 | 92 | 1008.7 |
| 20260831053102 | 56 | 235 | 4.0 | 8.0 | 0.00 | 0.07 | 0.01 | 92 | 1008.6 |
| 20260831052543 | 56 | 266 | 4.0 | 8.0 | 0.00 | 0.07 | 0.01 | 92 | 1008.7 |
| 20260831052044 | 56 | 278 | 3.0 | 7.0 | 0.00 | 0.07 | 0.01 | 92 | 1008.6 |
| 20260831051559 | 56 | 277 | 2.0 | 6.0 | 0.00 | 0.07 | 0.01 | 92 | 1008.5 |
| 20260831051044 | 56 | 266 | 3.0 | 7.0 | 0.00 | 0.07 | 0.01 | 92 | 1008.5 |
| 20260831050544 | 56 | 254 | 3.0 | 7.0 | 0.00 | 0.07 | 0.01 | 92 | 1008.4 |
| 20260831050109 | 56 | 234 | 3.0 | 7.0 | 0.00 | 0.07 | 0.01 | 91 | 1008.3 |
| 20260831045544 | 56 | 239 | 4.0 | 8.0 | 0.00 | 0.07 | 0.01 | 91 | 1008.3 |
| 20260831045048 | 56 | 246 | 3.0 | 10.0 | 0.00 | 0.07 | 0.01 | 91 | 1008.3 |
| 20260831044604 | 56 | 229 | 4.0 | 10.0 | 0.00 | 0.07 | 0.01 | 91 | 1008.2 |
| 20260831044045 | 56 | 233 | 3.0 | 11.0 | 0.00 | 0.07 | 0.01 | 91 | 1008.2 |
| 20260831043544 | 56 | 221 | 5.0 | 11.0 | 0.00 | 0.07 | 0.01 | 91 | 1008.1 |
| 20260831043104 | 56 | 234 | 3.0 | 10.0 | 0.00 | 0.07 | 0.01 | 91 | 1008.0 |
| 20260831042547 | 56 | 227 | 5.0 | 9.0 | 0.00 | 0.07 | 0.01 | 91 | 1008.0 |
| 20260831042044 | 56 | 207 | 3.0 | 9.0 | 0.00 | 0.07 | 0.01 | 91 | 1008.0 |
| 20260831041629 | 56 | 215 | 3.0 | 9.0 | 0.00 | 0.07 | 0.01 | 91 | 1007.9 |
| 20260831041044 | 56 | 234 | 4.0 | 9.0 | 0.00 | 0.07 | 0.01 | 91 | 1008.0 |
| 20260831040544 | 57 | 217 | 2.0 | 8.0 | 0.00 | 0.07 | 0.01 | 91 | 1007.9 |
| 20260831040108 | 57 | 236 | 4.0 | 9.0 | 0.00 | 0.07 | 0.01 | 91 | 1007.9 |
| 20260831035543 | 57 | 220 | 4.0 | 11.0 | 0.00 | 0.07 | 0.01 | 91 | 1008.0 |
| 20260831035044 | 57 | 213 | 3.0 | 11.0 | 0.00 | 0.07 | 0.01 | 90 | 1007.8 |
| 20260831034604 | 57 | 227 | 4.0 | 8.0 | 0.00 | 0.07 | 0.01 | 91 | 1007.9 |
| 20260831034044 | 57 | 205 | 4.0 | 8.0 | 0.00 | 0.07 | 0.01 | 90 | 1007.7 |
| 20260831033544 | 57 | 247 | 3.0 | 7.0 | 0.00 | 0.07 | 0.01 | 90 | 1007.7 |
| 20260831033106 | 57 | 217 | 3.0 | 8.0 | 0.00 | 0.07 | 0.01 | 90 | 1007.6 |
| 20260831032544 | 57 | 224 | 3.0 | 8.0 | 0.00 | 0.07 | 0.01 | 90 | 1007.6 |
| 20260831032046 | 57 | 201 | 4.0 | 8.0 | 0.00 | 0.07 | 0.01 | 90 | 1007.7 |
| 20260831031612 | 57 | 244 | 2.0 | 9.0 | 0.00 | 0.07 | 0.01 | 90 | 1007.7 |
| 20260831031043 | 57 | 253 | 4.0 | 10.0 | 0.00 | 0.07 | 0.01 | 90 | 1007.7 |
| 20260831030547 | 58 | 225 | 5.0 | 10.0 | 0.00 | 0.07 | 0.01 | 90 | 1007.6 |
| 20260831030118 | 58 | 254 | 4.0 | 10.0 | 0.00 | 0.07 | 0.01 | 90 | 1007.7 |
| 20260831025544 | 58 | 223 | 5.0 | 10.0 | 0.00 | 0.07 | 0.01 | 90 | 1007.6 |
| 20260831025044 | 58 | 211 | 3.0 | 10.0 | 0.00 | 0.07 | 0.01 | 90 | 1007.4 |
| 20260831024602 | 58 | 232 | 4.0 | 10.0 | 0.00 | 0.07 | 0.01 | 91 | 1007.4 |
| 20260831024043 | 58 | 251 | 4.0 | 12.0 | 0.00 | 0.07 | 0.01 | 91 | 1007.4 |
| 20260831023544 | 58 | 233 | 5.0 | 12.0 | 0.00 | 0.07 | 0.01 | 91 | 1007.3 |
| 20260831023102 | 59 | 255 | 5.0 | 10.0 | 0.00 | 0.07 | 0.01 | 91 | 1007.3 |
| 20260831022544 | 59 | 263 | 5.0 | 10.0 | 0.00 | 0.07 | 0.01 | 91 | 1007.2 |
| 20260831022044 | 59 | 244 | 3.0 | 11.0 | 0.00 | 0.07 | 0.01 | 91 | 1007.1 |
| 20260831021602 | 59 | 210 | 5.0 | 12.0 | 0.00 | 0.07 | 0.01 | 92 | 1006.9 |
| 20260831021044 | 59 | 234 | 4.0 | 12.0 | 0.00 | 0.07 | 0.01 | 92 | 1007.0 |
| 20260831020544 | 59 | 259 | 3.0 | 11.0 | 0.00 | 0.07 | 0.01 | 92 | 1006.9 |
| 20260831020103 | 59 | 255 | 5.0 | 11.0 | 0.00 | 0.07 | 0.01 | 92 | 1007.0 |
| 20260831015543 | 59 | 246 | 4.0 | 10.0 | 0.00 | 0.07 | 0.01 | 92 | 1006.8 |
| 20260831015043 | 59 | 219 | 3.0 | 14.0 | 0.00 | 0.07 | 0.01 | 92 | 1006.7 |
| 20260831014603 | 59 | 211 | 5.0 | 14.0 | 0.00 | 0.07 | 0.01 | 92 | 1006.7 |
| 20260831014044 | 59 | 210 | 6.0 | 14.0 | 0.00 | 0.07 | 0.01 | 93 | 1006.8 |
| 20260831013544 | 60 | 218 | 5.0 | 13.0 | 0.00 | 0.07 | 0.01 | 93 | 1006.8 |
| 20260831013105 | 60 | 216 | 4.0 | 10.0 | 0.00 | 0.07 | 0.01 | 93 | 1006.8 |
| 20260831012545 | 60 | 205 | 2.0 | 7.0 | 0.00 | 0.07 | 0.01 | 93 | 1006.8 |
| 20260831012044 | 60 | 240 | 3.0 | 6.0 | 0.01 | 0.07 | 0.01 | 93 | 1007.0 |
| 20260831011610 | 60 | 202 | 2.0 | 8.0 | 0.01 | 0.07 | 0.01 | 93 | 1006.9 |
| 20260831011044 | 60 | 202 | 3.0 | 8.0 | 0.01 | 0.07 | 0.01 | 93 | 1006.9 |
| 20260831010548 | 60 | 201 | 1.0 | 5.0 | 0.01 | 0.07 | 0.01 | 93 | 1006.7 |
| 20260831005544 | 59 | 171 | 0.0 | 3.0 | 0.01 | 0.07 | 0.01 | 92 | 1006.7 |
| 20260831005044 | 60 | 0 | 0.0 | 3.0 | 0.01 | 0.07 | 0.01 | 92 | 1006.6 |
| 20260831004611 | 60 | 0 | 0.0 | 5.0 | 0.01 | 0.07 | 0.01 | 92 | 1006.6 |
| 20260831004044 | 60 | 146 | 1.0 | 5.0 | 0.01 | 0.07 | 0.01 | 92 | 1006.6 |
| 20260831003544 | 60 | 210 | 1.0 | 5.0 | 0.00 | 0.06 | 0.00 | 92 | 1006.6 |
| 20260831003100 | 60 | 155 | 1.0 | 4.0 | 0.00 | 0.06 | 0.00 | 92 | 1006.7 |
| 20260831002545 | 60 | 144 | 1.0 | 4.0 | 0.00 | 0.06 | 0.00 | 92 | 1006.7 |
| 20260831002044 | 60 | 0 | 0.0 | 5.0 | 0.00 | 0.05 | 0.00 | 92 | 1006.9 |
| 20260831001558 | 60 | 0 | 1.0 | 5.0 | 0.00 | 0.05 | 0.00 | 92 | 1006.9 |
| 20260831001044 | 60 | 144 | 1.0 | 7.0 | 0.00 | 0.05 | 0.00 | 92 | 1007.0 |
| 20260831000544 | 60 | 136 | 1.0 | 7.0 | 0.00 | 0.05 | 0.00 | 92 | 1007.0 |
| 20260831000107 | 60 | 222 | 1.0 | 6.0 | 0.00 | 0.05 | 0.00 | 92 | 1007.0 |
| 20260830235543 | 60 | 234 | 2.0 | 5.0 | 0.00 | 0.05 | 0.00 | 92 | 1007.0 |
| 20260830235045 | 60 | 158 | 1.0 | 7.0 | 0.00 | 0.05 | 0.00 | 92 | 1007.1 |
| 20260830234607 | 60 | 189 | 1.0 | 7.0 | 0.00 | 0.05 | 0.00 | 92 | 1007.3 |
| 20260830234046 | 60 | 184 | 1.0 | 5.0 | 0.00 | 0.05 | 0.00 | 92 | 1007.3 |
| 20260830233544 | 60 | 167 | 1.0 | 7.0 | 0.00 | 0.05 | 0.00 | 92 | 1007.2 |
| 20260830233103 | 60 | 0 | 1.0 | 7.0 | 0.00 | 0.05 | 0.00 | 92 | 1007.4 |
| 20260830232543 | 60 | 201 | 1.0 | 6.0 | 0.00 | 0.05 | 0.00 | 92 | 1007.4 |
| 20260830232046 | 60 | 138 | 2.0 | 6.0 | 0.00 | 0.05 | 0.00 | 92 | 1007.4 |
| 20260830231605 | 60 | 195 | 1.0 | 6.0 | 0.00 | 0.05 | 0.00 | 92 | 1007.4 |
| 20260830231044 | 60 | 185 | 2.0 | 6.0 | 0.00 | 0.05 | 0.00 | 93 | 1007.5 |
| 20260830230543 | 60 | 192 | 2.0 | 6.0 | 0.00 | 0.05 | 0.00 | 93 | 1007.6 |
| 20260830230103 | 59 | 195 | 2.0 | 6.0 | 0.00 | 0.05 | 0.00 | 93 | 1007.6 |
| 20260830225543 | 59 | 148 | 2.0 | 6.0 | 0.00 | 0.05 | 0.05 | 92 | 1007.7 |
| 20260830225043 | 59 | 191 | 2.0 | 6.0 | 0.00 | 0.05 | 0.05 | 92 | 1007.8 |
| 20260830224609 | 59 | 213 | 1.0 | 6.0 | 0.00 | 0.05 | 0.05 | 92 | 1007.7 |
| 20260830224043 | 59 | 150 | 0.0 | 4.0 | 0.00 | 0.05 | 0.05 | 92 | 1007.7 |
| 20260830223543 | 60 | 182 | 0.0 | 6.0 | 0.00 | 0.05 | 0.05 | 92 | 1007.9 |
| 20260830223109 | 60 | 148 | 1.0 | 6.0 | 0.00 | 0.05 | 0.05 | 92 | 1008.0 |
| 20260830222544 | 60 | 187 | 2.0 | 6.0 | 0.00 | 0.05 | 0.05 | 92 | 1008.1 |
| 20260830222046 | 60 | 198 | 1.0 | 4.0 | 0.00 | 0.05 | 0.05 | 92 | 1008.1 |
| 20260830221624 | 60 | 142 | 0.0 | 6.0 | 0.00 | 0.05 | 0.05 | 92 | 1008.2 |
| 20260830221044 | 60 | 196 | 1.0 | 6.0 | 0.00 | 0.05 | 0.05 | 92 | 1008.3 |
| 20260830220543 | 60 | 223 | 2.0 | 11.0 | 0.00 | 0.05 | 0.05 | 92 | 1008.2 |
| 20260830220108 | 60 | 202 | 1.0 | 11.0 | 0.00 | 0.05 | 0.05 | 92 | 1008.3 |
| 20260830215544 | 60 | 183 | 3.0 | 8.0 | 0.00 | 0.05 | 0.05 | 92 | 1008.3 |
| 20260830215044 | 60 | 193 | 3.0 | 9.0 | 0.00 | 0.05 | 0.05 | 91 | 1008.2 |
| 20260830214601 | 60 | 213 | 3.0 | 9.0 | 0.02 | 0.05 | 0.05 | 91 | 1008.3 |
| 20260830214045 | 60 | 203 | 3.0 | 8.0 | 0.03 | 0.05 | 0.05 | 91 | 1008.5 |
| 20260830213544 | 60 | 251 | 4.0 | 10.0 | 0.04 | 0.05 | 0.05 | 91 | 1008.5 |
| 20260830213106 | 61 | 202 | 3.0 | 10.0 | 0.04 | 0.05 | 0.05 | 91 | 1008.4 |
| 20260830212544 | 61 | 200 | 2.0 | 10.0 | 0.04 | 0.05 | 0.05 | 91 | 1008.5 |
| 20260830212044 | 61 | 229 | 4.0 | 11.0 | 0.05 | 0.05 | 0.05 | 91 | 1008.6 |
| 20260830211608 | 61 | 240 | 5.0 | 13.0 | 0.05 | 0.05 | 0.05 | 90 | 1008.5 |
| 20260830211044 | 61 | 211 | 6.0 | 17.0 | 0.05 | 0.05 | 0.05 | 90 | 1008.3 |
| 20260830210544 | 61 | 200 | 5.0 | 18.0 | 0.05 | 0.05 | 0.05 | 89 | 1008.0 |
| 20260830210105 | 61 | 213 | 8.0 | 18.0 | 0.05 | 0.05 | 0.05 | 89 | 1008.0 |
| 20260830205546 | 62 | 232 | 8.0 | 17.0 | 0.04 | 0.04 | 0.04 | 87 | 1007.9 |
| 20260830205043 | 62 | 178 | 5.0 | 14.0 | 0.04 | 0.04 | 0.04 | 86 | 1007.4 |
| 20260830204607 | 63 | 162 | 3.0 | 10.0 | 0.03 | 0.03 | 0.03 | 85 | 1007.5 |
| 20260830204044 | 63 | 150 | 3.0 | 11.0 | 0.01 | 0.01 | 0.01 | 85 | 1007.7 |
| 20260830203544 | 64 | 208 | 2.0 | 11.0 | 0.00 | 0.00 | 0.00 | 84 | 1007.8 |
| 20260830203106 | 64 | 142 | 2.0 | 10.0 | 0.00 | 0.00 | 0.00 | 83 | 1007.7 |
| 20260830202544 | 65 | 192 | 1.0 | 7.0 | 0.00 | 0.00 | 0.00 | 82 | 1007.8 |
| 20260830202044 | 65 | 146 | 1.0 | 10.0 | 0.00 | 0.00 | 0.00 | 80 | 1007.6 |
| 20260830201635 | 65 | 151 | 2.0 | 10.0 | 0.00 | 0.00 | 0.00 | 80 | 1007.7 |
| 20260830201043 | 65 | 169 | 3.0 | 10.0 | 0.00 | 0.00 | 0.00 | 80 | 1007.9 |
| 20260830200544 | 65 | 151 | 4.0 | 10.0 | 0.00 | 0.00 | 0.00 | 79 | 1008.0 |
| 20260830200112 | 65 | 207 | 1.0 | 8.0 | 0.00 | 0.00 | 0.00 | 79 | 1008.1 |
| 20260830195544 | 65 | 176 | 2.0 | 8.0 | 0.00 | 0.00 | 0.00 | 78 | 1008.1 |
| 20260830195044 | 65 | 148 | 1.0 | 8.0 | 0.00 | 0.00 | 0.00 | 78 | 1008.2 |
| 20260830194610 | 65 | 186 | 2.0 | 8.0 | 0.00 | 0.00 | 0.00 | 78 | 1008.2 |
| 20260830194044 | 65 | 207 | 3.0 | 8.0 | 0.00 | 0.00 | 0.00 | 78 | 1008.0 |
| 20260830193544 | 65 | 0 | 1.0 | 10.0 | 0.00 | 0.00 | 0.00 | 78 | 1008.0 |
| 20260830193111 | 65 | 138 | 3.0 | 11.0 | 0.00 | 0.00 | 0.00 | 78 | 1008.1 |
| 20260830192543 | 66 | 203 | 3.0 | 11.0 | 0.00 | 0.00 | 0.00 | 77 | 1008.2 |
| 20260830192046 | 66 | 219 | 2.0 | 8.0 | 0.00 | 0.00 | 0.00 | 77 | 1008.2 |
| 20260830191608 | 66 | 199 | 2.0 | 12.0 | 0.00 | 0.00 | 0.00 | 76 | 1008.2 |
| 20260830191043 | 66 | 193 | 2.0 | 12.0 | 0.00 | 0.00 | 0.00 | 76 | 1008.4 |
| 20260830190544 | 66 | 168 | 2.0 | 7.0 | 0.00 | 0.00 | 0.00 | 76 | 1008.3 |
| 20260830190058 | 66 | 234 | 2.0 | 10.0 | 0.00 | 0.00 | 0.00 | 75 | 1008.5 |
| 20260830185548 | 66 | 207 | 3.0 | 10.0 | 0.00 | 0.00 | 0.00 | 75 | 1008.5 |
| 20260830185044 | 66 | 210 | 2.0 | 9.0 | 0.00 | 0.00 | 0.00 | 75 | 1008.5 |
| 20260830184600 | 66 | 211 | 3.0 | 9.0 | 0.00 | 0.00 | 0.00 | 75 | 1008.5 |
| 20260830184045 | 66 | 187 | 3.0 | 9.0 | 0.00 | 0.00 | 0.00 | 74 | 1008.7 |
| 20260830183543 | 67 | 213 | 3.0 | 14.0 | 0.00 | 0.00 | 0.00 | 74 | 1008.7 |
| 20260830183108 | 67 | 197 | 6.0 | 14.0 | 0.00 | 0.00 | 0.00 | 74 | 1008.6 |
| 20260830182546 | 67 | 190 | 6.0 | 12.0 | 0.00 | 0.00 | 0.00 | 74 | 1008.7 |
| 20260830182044 | 67 | 234 | 4.0 | 12.0 | 0.00 | 0.00 | 0.00 | 73 | 1008.6 |
| 20260830181604 | 67 | 181 | 4.0 | 12.0 | 0.00 | 0.00 | 0.00 | 73 | 1008.6 |
| 20260830181044 | 67 | 148 | 4.0 | 14.0 | 0.00 | 0.00 | 0.00 | 73 | 1008.7 |
| 20260830180543 | 67 | 217 | 5.0 | 14.0 | 0.00 | 0.00 | 0.00 | 73 | 1008.6 |
| 20260830180109 | 67 | 209 | 6.0 | 13.0 | 0.00 | 0.00 | 0.00 | 72 | 1008.8 |
| 20260830175543 | 67 | 164 | 3.0 | 18.0 | 0.00 | 0.00 | 0.00 | 72 | 1008.7 |
| 20260830175044 | 68 | 192 | 6.0 | 18.0 | 0.00 | 0.00 | 0.00 | 72 | 1008.8 |
| 20260830174605 | 68 | 221 | 5.0 | 18.0 | 0.00 | 0.00 | 0.00 | 71 | 1008.9 |
| 20260830174047 | 68 | 194 | 7.0 | 18.0 | 0.00 | 0.00 | 0.00 | 71 | 1008.9 |
| 20260830173543 | 68 | 229 | 5.0 | 17.0 | 0.00 | 0.00 | 0.00 | 71 | 1008.9 |
| 20260830173125 | 68 | 192 | 6.0 | 12.0 | 0.00 | 0.00 | 0.00 | 71 | 1008.9 |
| 20260830172544 | 68 | 175 | 2.0 | 14.0 | 0.00 | 0.00 | 0.00 | 72 | 1009.0 |
| 20260830172044 | 68 | 154 | 5.0 | 14.0 | 0.00 | 0.00 | 0.00 | 71 | 1008.9 |
| 20260830171608 | 68 | 198 | 7.0 | 13.0 | 0.00 | 0.00 | 0.00 | 71 | 1009.0 |
| 20260830171044 | 68 | 198 | 4.0 | 15.0 | 0.00 | 0.00 | 0.00 | 71 | 1009.1 |
| 20260830170545 | 68 | 235 | 7.0 | 16.0 | 0.00 | 0.00 | 0.00 | 70 | 1009.1 |
| 20260830170108 | 68 | 196 | 8.0 | 16.0 | 0.00 | 0.00 | 0.00 | 70 | 1009.2 |
| 20260830165547 | 68 | 176 | 7.0 | 16.0 | 0.00 | 0.03 | 0.00 | 70 | 1009.2 |
| 20260830165044 | 68 | 181 | 6.0 | 16.0 | 0.00 | 0.03 | 0.00 | 69 | 1009.2 |
| 20260830164614 | 69 | 223 | 6.0 | 16.0 | 0.00 | 0.03 | 0.00 | 68 | 1009.1 |
| 20260830164044 | 69 | 220 | 6.0 | 16.0 | 0.00 | 0.03 | 0.00 | 67 | 1009.0 |
| 20260830163544 | 69 | 192 | 4.0 | 13.0 | 0.00 | 0.03 | 0.00 | 69 | 1009.0 |
| 20260830163117 | 69 | 198 | 4.0 | 13.0 | 0.00 | 0.03 | 0.00 | 70 | 1009.0 |
| 20260830162544 | 69 | 167 | 4.0 | 18.0 | 0.00 | 0.03 | 0.00 | 70 | 1009.1 |
| 20260830162043 | 69 | 217 | 7.0 | 19.0 | 0.00 | 0.03 | 0.00 | 70 | 1009.2 |
| 20260830161610 | 69 | 220 | 9.0 | 19.0 | 0.00 | 0.03 | 0.00 | 69 | 1009.2 |
| 20260830161044 | 69 | 213 | 7.0 | 19.0 | 0.00 | 0.03 | 0.00 | 69 | 1009.2 |
| 20260830160544 | 69 | 186 | 5.0 | 15.0 | 0.00 | 0.03 | 0.00 | 70 | 1009.3 |
| 20260830160108 | 69 | 181 | 6.0 | 15.0 | 0.00 | 0.03 | 0.00 | 69 | 1009.5 |
| 20260830155543 | 69 | 214 | 6.0 | 17.0 | 0.00 | 0.07 | 0.00 | 70 | 1009.4 |
| 20260830155044 | 69 | 135 | 4.0 | 22.0 | 0.00 | 0.07 | 0.00 | 70 | 1009.5 |
| 20260830154611 | 69 | 192 | 8.0 | 22.0 | 0.00 | 0.07 | 0.00 | 70 | 1009.6 |
| 20260830154045 | 70 | 182 | 7.0 | 16.0 | 0.00 | 0.07 | 0.00 | 69 | 1009.5 |
| 20260830153543 | 70 | 163 | 6.0 | 13.0 | 0.00 | 0.07 | 0.00 | 70 | 1009.5 |
| 20260830153112 | 69 | 194 | 5.0 | 22.0 | 0.00 | 0.07 | 0.00 | 70 | 1009.6 |
| 20260830152543 | 69 | 204 | 9.0 | 22.0 | 0.00 | 0.07 | 0.00 | 70 | 1009.8 |
| 20260830152043 | 69 | 262 | 8.0 | 17.0 | 0.00 | 0.07 | 0.00 | 69 | 1009.8 |
| 20260830151608 | 69 | 160 | 7.0 | 15.0 | 0.00 | 0.07 | 0.00 | 69 | 1009.7 |
| 20260830151044 | 69 | 162 | 4.0 | 17.0 | 0.00 | 0.07 | 0.00 | 69 | 1009.8 |
| 20260830150544 | 69 | 211 | 6.0 | 19.0 | 0.00 | 0.07 | 0.00 | 68 | 1009.9 |
| 20260830150105 | 69 | 194 | 8.0 | 23.0 | 0.00 | 0.07 | 0.00 | 68 | 1009.9 |
| 20260830145543 | 69 | 202 | 13.0 | 23.0 | 0.00 | 0.11 | 0.00 | 67 | 1009.9 |